Location: Unspecified
(54.1780°N, 0.0000°E)
Time: 12:45:55
(UTC+00:00)

N. Korean satellite - Visible Passes

Search period start: 17 October 2019 00:00
Search period end: 27 October 2019 00:00
Orbit: 455 x 508 km, 97.2° (Epoch: 16 October)

Date Brightness Start Highest point End Pass type
(mag) Time Alt. Az. Time Alt. Az. Time Alt. Az.
17 Oct 10.4 18:20:44 10° WSW 18:21:59 12° W 18:23:14 10° WNW visible
18 Oct 8.4 05:37:41 10° NNE 05:41:04 37° E 05:44:27 10° SSE visible
18 Oct 9.6 17:53:48 10° SW 17:56:26 20° W 17:59:05 10° NW visible
19 Oct 9.5 05:12:46 10° NE 05:15:36 21° E 05:18:27 10° SE visible
19 Oct 8.4 17:27:45 10° SSW 17:30:57 36° W 17:34:12 10° NNW visible
20 Oct 10.3 04:48:27 10° ENE 04:50:03 12° E 04:51:40 10° ESE visible
21 Oct 7.4 05:55:02 10° NNE 05:58:37 58° ESE 06:02:12 10° S visible
21 Oct 10.1 18:12:12 10° WSW 18:14:04 14° W 18:15:57 10° NW visible
22 Oct 8.7 05:29:55 10° NNE 05:33:12 32° E 05:36:31 10° SSE visible
22 Oct 9.3 17:45:40 10° SSW 17:48:31 24° W 17:51:26 10° NW visible
23 Oct 9.8 05:05:06 10° NE 05:07:43 18° E 05:10:21 10° SE visible
23 Oct 7.9 17:19:45 10° S 17:23:04 44° W 17:26:27 10° NNW visible
24 Oct 10.5 04:41:16 10° ENE 04:42:09 11° E 04:43:02 10° E visible
25 Oct 7.8 05:47:11 10° NNE 05:50:45 48° E 05:54:19 10° S visible
25 Oct 9.9 18:03:49 10° SW 18:06:07 17° W 18:08:26 10° NW visible
26 Oct 9.1 05:22:08 10° NE 05:25:19 27° E 05:28:30 10° SSE visible
26 Oct 8.9 17:37:31 10° SSW 17:40:36 29° W 17:43:43 10° NNW visible
